Regional Weather Roundup
Issued by NWS

Home | Current Version | Previous Version | Graphics & Text | Print | Product List | Glossary On
Versions: 1 2 3 4 5 6 7 8 9 10 11 12 13 14 15 16 17 18 19 20 21 22 23 24 25 26 27 28 29 30 31 32 33 34 35 36 37 38 39 40 41 42 43 44 45 46 47 48 49 50
000
ASUS45 KTFX 021104
RWRMT
MONTANA REGIONAL WEATHER ROUNDUP
NATIONAL WEATHER SERVICE GREAT FALLS MT
500 AM MDT WED SEP 02 2015

NOTE: "FAIR" INDICATES FEW OR NO CLOUDS BELOW 12000 FEET WITH NO
SIGNIFICANT WEATHER AND/OR OBSTRUCTIONS TO VISIBILITY.

MTZ001>007-043-021200-
WEST OF THE DIVIDE

CITY           SKY/WX    TMP DP  RH WIND       PRES   REMARKS
KALISPELL      CLOUDY    52  39  61 CALM      29.74S
MISSOULA       CLOUDY    51  37  58 CALM      29.78S
BUTTE          PTCLDY    43  35  73 SE3       29.88F
MULLAN PASS    CLOUDY    48  35  60 SW5       29.88S
DEER LODGE       N/A     43  34  70 CALM      29.86F
EUREKA           N/A     54  41  62 E5        29.73S
HAMILTON         N/A     52  41  66 SE3       29.77S
LIBBY            N/A     50  37  62 CALM      29.74F
$$

MTZ008-052>055-021200-
SOUTHWEST MONTANA

CITY           SKY/WX    TMP DP  RH WIND       PRES   REMARKS
BOZEMAN        PTCLDY    53  37  54 S7        29.81F
DILLON         PTCLDY    60  25  26 S7        29.85S
W YELLOWSTONE  CLEAR     37  36  93 CALM      30.04S
$$

MTZ009-010-012-014-046-048-049-054-021200-
EAST SLOPES AND CENTRAL MONTANA

CITY           SKY/WX    TMP DP  RH WIND       PRES   REMARKS
CUT BANK       MOCLDY    57  31  37 W8        29.73F
GREAT FALLS    PTCLDY    51  33  50 SW9       29.72F
HELENA         CLEAR     55  36  48 CALM      29.78S
$$

MTZ011-013-016-021-045-047-050-051-021200-
NORTH CENTRAL MONTANA

CITY           SKY/WX    TMP DP  RH WIND       PRES   REMARKS
HAVRE          CLEAR     53  39  59 NE5       29.66F
LEWISTOWN      CLEAR     54  37  52 SE5       29.76S
N BAR RANCH      N/A     59  36  41 SW13      29.81F
CHINOOK          N/A     52  39  62 CALM      29.67F
FORT BENTON      N/A     54  34  47 SW7       29.70S
$$

MTZ017>020-022>027-061-062-021200-
NORTHEAST MONTANA

CITY           SKY/WX    TMP DP  RH WIND       PRES   REMARKS
GLASGOW        CLEAR     61  39  44 E14       29.70F
JORDAN           N/A     50  35  56 CALM      29.70F
SIDNEY         CLEAR     50  41  71 CALM      29.76F
WOLF POINT     CLEAR     51  43  74 E7        29.73F
PLENTYWOOD       N/A     63  43  48 SE8       29.78S
POPLAR           N/A     54  43  66 NE7       29.75F
$$

MTZ028>42-056>058-021200-
SOUTHCENTRAL AND SOUTHEAST MONTANA

CITY           SKY/WX    TMP DP  RH WIND       PRES   REMARKS
BAKER          CLEAR     56  52  86 SE7       29.80F
BILLINGS       MOCLDY    65  31  28 SW12      29.77S
LIVINGSTON     CLEAR     58  31  35 NW10G17   29.82S
MILES CITY     CLEAR     59  41  51 E3        29.73S
FORSYTH          N/A     61  37  41 E8        29.71S
$$

REGIONAL REPORTS...DAKOTAS

CITY           SKY/WX    TMP DP  RH WIND       PRES   REMARKS
WILLISTON      CLEAR     57  45  64 N6        29.77S
MINOT          CLEAR     62  59  90 SE5       29.77S
DICKINSON      CLEAR     59  52  77 S8        29.79F
BISMARCK       CLEAR     62  61  96 E5        29.80R
GRAND FORKS    CLOUDY    65  63  93 S6        29.82S
FARGO          CLEAR     69  66  90 SE9       29.83F
BUFFALO SD       N/A     63  54  72 S5        29.76F
RAPID CITY     PTCLDY    60  47  61 NW5       29.85S
$$

REGIONAL REPORTS...WYOMING/IDAHO/WASHINGTON

CITY           SKY/WX    TMP DP  RH WIND       PRES   REMARKS
GILLETTE       MOCLDY    72  41  32 SW21      29.88R
SHERIDAN       CLEAR     58  39  49 S5        29.85S
BUFFALO WY     PTCLDY    72  35  25 W14       29.94R
CODY           PTCLDY    64  30  27 SW8       29.93R
YELLOWSTONE LA   N/A     40  39  97 CALM      30.15S
IDAHO FALLS    CLEAR     68  39  34 S12       29.90S
SALMON         PTCLDY    48  36  61 CALM      29.81S
BOISE          MOCLDY    65  37  35 SE9       29.80R
SPOKANE        CLOUDY    59  45  59 S13       29.75S
$$

REGIONAL REPORTS...ALBERTA

CITY           SKY/WX    TMP DP  RH WIND       PRES   REMARKS
$$

REGIONAL REPORTS...SASKATCHEWAN

CITY           SKY/WX    TMP DP  RH WIND       PRES   REMARKS
$$


USA.gov is the U.S. government's official web portal to all federal, state and local government web resources and services.